This demonstration page uses our WeatherBlox Daily Observations layout. Learn more.

Left ArrowRight Arrow

38.20091, -84.87328

Hourly Observations for April 25, 2022

Temp ( °F °C ) Dew Point ( °F °C ) Humidity (%) Winds ( mph kmh ) Pressure ( in mb ) Visibility ( mi km ) Precip ( " mm )
12:53 am 00:53 Clear 70 21.1 54 12.2 57 57 SSW 8 13 29.99 1016 10 16 0.00 0.00
1:53 am 01:53 Mostly Clear 70 21.1 55 12.8 59 59 SSW 8 13 29.99 1016 10 16 0.00 0.00
2:53 am 02:53 Cloudy 70 21.1 55 12.8 59 59 S 7 11 29.99 1016 10 16 0.00 0.00
3:53 am 03:53 Partly Cloudy 69 20.6 55 12.8 61 61 S 8 13 29.98 1015 10 16 0.00 0.00
4:53 am 04:53 Clear 67 19.4 55 12.8 66 66 S 7 11 29.97 1015 10 16 0.00 0.00
5:53 am 05:53 Clear 67 19.4 55 12.8 66 66 S 5 7 29.96 1015 10 16 0.00 0.00
6:53 am 06:53 Cloudy 68 20 56 13.3 65 65 S 7 11 29.97 1015 10 16 0.00 0.00
7:53 am 07:53 Cloudy 69 20.6 56 13.3 63 63 S 8 13 29.99 1016 10 16 0.00 0.00
8:53 am 08:53 Mostly Cloudy 72 22.2 57 13.9 59 59 S 14 22 29.99 1016 10 16 0.00 0.00
9:53 am 09:53 Cloudy 73 22.8 59 15 62 62 SSW 18 30 30.01 1016 10 16 0.00 0.00
10:53 am 10:53 Mostly Sunny 74 23.3 60 15.6 62 62 SSW 15 24 30.00 1016 10 16 0.00 0.00
11:53 am 11:53 Cloudy 74 23.3 61 16.1 64 64 SSW 17 28 30.01 1016 10 16 0.00 0.00
12:53 pm 12:53 Cloudy 75 23.9 62 16.7 64 64 SW 12 19 30.00 1016 10 16 0.00 0.00
1:53 pm 13:53 Cloudy 76 24.4 62 16.7 62 62 SSW 16 26 29.98 1015 10 16 0.00 0.00
2:53 pm 14:53 Cloudy with Light Rain 76 24.4 62 16.7 62 62 SSW 18 30 29.98 1015 10 16 0.00 0.00
3:53 pm 15:53 Cloudy 75 23.9 62 16.7 64 64 SSW 17 28 29.98 1015 10 16 0.00 0.00
4:23 pm 16:23 Cloudy with Rain 69 20.6 63 17.2 81 81 W 12 19 30.01 1016 2 3 0.07 1.78
4:33 pm 16:33 Cloudy with Light Rain 68 20 63 17.2 84 84 W 8 13 30.01 1016 3 4 0.10 2.54
4:40 pm 16:40 Cloudy 67 19.4 62 16.7 84 84 WNW 10 17 30.02 1017 10 16 0.10 2.54
4:53 pm 16:53 Cloudy 66 18.9 61 16.1 84 84 NW 12 19 30.03 1017 10 16 0.10 2.54
5:12 pm 17:12 Cloudy 65 18.3 61 16.1 87 87 WNW 8 13 30.03 1017 10 16 0.00 0.00
5:53 pm 17:53 Mostly Sunny 66 19 N/A N/A WNW 12 19 30.03 1017 10 16 0.00 0.00
6:53 pm 18:53 Mostly Cloudy 64 18 N/A N/A NW 9 15 30.06 1018 10 16 0.00 0.00
7:53 pm 19:53 Cloudy 63 17 N/A N/A WNW 8 13 30.07 1018 10 16 0.00 0.00
8:18 pm 20:18 Cloudy 63 17 N/A N/A WNW 6 9 30.08 1019 10 16 0.00 0.00
8:30 pm 20:30 Cloudy with Light Rain 63 17 N/A N/A WNW 6 9 30.09 1019 10 16 0.00 0.00
8:42 pm 20:42 Cloudy 63 17 N/A N/A NW 7 11 30.09 1019 10 16 0.00 0.00
8:53 pm 20:53 Cloudy 61 16 N/A N/A NW 8 13 30.09 1019 10 16 0.00 0.00
9:53 pm 21:53 Cloudy 61 16 N/A N/A NW 3 6 30.11 1020 10 16 0.00 0.00
10:53 pm 22:53 Cloudy 61 16 N/A N/A Calm 30.13 1020 10 16 0.00 0.00
11:53 pm 23:53 Cloudy with Light Rain 59 15 N/A N/A NW 10 17 30.13 1020 9 14 0.01 0.25

Powered by AerisWeather